Year,Month,Day,Hour,Minute,Value (Times are PST for temperature in C)
2009,09,29,00,00,9.70
2009,09,29,00,01,9.70
2009,09,29,00,02,9.70
2009,09,29,00,03,9.70
2009,09,29,00,04,9.70
2009,09,29,00,05,9.70
2009,09,29,00,06,9.70
2009,09,29,00,07,9.70
2009,09,29,00,08,9.70
2009,09,29,00,09,9.70
2009,09,29,00,10,9.70
2009,09,29,00,11,9.70
2009,09,29,00,12,9.70
2009,09,29,00,13,9.70
2009,09,29,00,14,9.70
2009,09,29,00,15,9.70
2009,09,29,00,16,9.80
2009,09,29,00,17,9.80
2009,09,29,00,18,9.80
2009,09,29,00,19,9.70
2009,09,29,00,20,9.70
2009,09,29,00,21,9.70
2009,09,29,00,22,9.70
2009,09,29,00,23,9.70
2009,09,29,00,24,9.70
2009,09,29,00,25,9.70
2009,09,29,00,26,9.70
2009,09,29,00,27,9.70
2009,09,29,00,28,9.70
2009,09,29,00,29,9.70
2009,09,29,00,30,9.80
2009,09,29,00,31,9.80
2009,09,29,00,32,9.80
2009,09,29,00,33,9.80
2009,09,29,00,34,9.80
2009,09,29,00,35,9.80
2009,09,29,00,36,9.80
2009,09,29,00,37,9.80
2009,09,29,00,38,9.80
2009,09,29,00,39,9.80
2009,09,29,00,40,9.80
2009,09,29,00,41,9.80
2009,09,29,00,42,9.80
2009,09,29,00,43,9.80
2009,09,29,00,44,9.70
2009,09,29,00,45,9.70
2009,09,29,00,46,9.70
2009,09,29,00,47,9.70
2009,09,29,00,48,9.70
2009,09,29,00,49,9.70
2009,09,29,00,50,9.70
2009,09,29,00,51,9.70
2009,09,29,00,52,9.70
2009,09,29,00,53,9.70
2009,09,29,00,54,9.70
2009,09,29,00,55,9.70
2009,09,29,00,56,9.70
2009,09,29,00,57,9.70
2009,09,29,00,58,9.70
2009,09,29,00,59,9.70
2009,09,29,01,00,9.70
2009,09,29,01,01,9.70
2009,09,29,01,02,9.70
2009,09,29,01,03,9.70
2009,09,29,01,04,9.70
2009,09,29,01,05,9.70
2009,09,29,01,06,9.70
2009,09,29,01,07,9.70
2009,09,29,01,08,9.80
2009,09,29,01,09,9.80
2009,09,29,01,10,9.80
2009,09,29,01,11,9.80
2009,09,29,01,12,9.80
2009,09,29,01,13,9.80
2009,09,29,01,14,9.80
2009,09,29,01,15,9.80
2009,09,29,01,16,9.80
2009,09,29,01,17,9.80
2009,09,29,01,18,9.80
2009,09,29,01,19,9.80
2009,09,29,01,20,9.70
2009,09,29,01,21,9.70
2009,09,29,01,22,9.70
2009,09,29,01,23,9.70
2009,09,29,01,24,9.70
2009,09,29,01,25,9.70
2009,09,29,01,26,9.70
2009,09,29,01,27,9.70
2009,09,29,01,28,9.70
2009,09,29,01,29,9.70
2009,09,29,01,30,9.70
2009,09,29,01,31,9.70
2009,09,29,01,32,9.70
2009,09,29,01,33,9.70
2009,09,29,01,34,9.70
2009,09,29,01,35,9.70
2009,09,29,01,36,9.70
2009,09,29,01,37,9.70
2009,09,29,01,38,9.70
2009,09,29,01,39,9.70
2009,09,29,01,40,9.70
2009,09,29,01,41,9.70
2009,09,29,01,42,9.70
2009,09,29,01,43,9.70
2009,09,29,01,44,9.70
2009,09,29,01,45,9.60
2009,09,29,01,46,9.60
2009,09,29,01,47,9.60
2009,09,29,01,48,9.60
2009,09,29,01,49,9.60
2009,09,29,01,50,9.70
2009,09,29,01,51,9.60
2009,09,29,01,52,9.60
2009,09,29,01,53,9.60
2009,09,29,01,54,9.60
2009,09,29,01,55,9.70
2009,09,29,01,56,9.70
2009,09,29,01,57,9.70
2009,09,29,01,58,9.70
2009,09,29,01,59,9.70
2009,09,29,02,00,9.70
2009,09,29,02,01,9.70
2009,09,29,02,02,9.70
2009,09,29,02,03,9.70
2009,09,29,02,04,9.70
2009,09,29,02,05,9.70
2009,09,29,02,06,9.70
2009,09,29,02,07,9.70
2009,09,29,02,08,9.70
2009,09,29,02,09,9.70
2009,09,29,02,10,9.70
2009,09,29,02,11,9.70
2009,09,29,02,12,9.70
2009,09,29,02,13,9.70
2009,09,29,02,14,9.70
2009,09,29,02,15,9.70
2009,09,29,02,16,9.70
2009,09,29,02,17,9.70
2009,09,29,02,18,9.70
2009,09,29,02,19,9.70
2009,09,29,02,20,9.70
2009,09,29,02,21,9.70
2009,09,29,02,22,9.70
2009,09,29,02,23,9.70
2009,09,29,02,24,9.70
2009,09,29,02,25,9.70
2009,09,29,02,26,9.70
2009,09,29,02,27,9.70
2009,09,29,02,28,9.70
2009,09,29,02,29,9.70
2009,09,29,02,30,9.70
2009,09,29,02,31,9.70
2009,09,29,02,32,9.70
2009,09,29,02,33,9.70
2009,09,29,02,34,9.60
2009,09,29,02,35,9.60
2009,09,29,02,36,9.60
2009,09,29,02,37,9.60
2009,09,29,02,38,9.50
2009,09,29,02,39,9.50
2009,09,29,02,40,9.50
2009,09,29,02,41,9.40
2009,09,29,02,42,9.40
2009,09,29,02,43,9.40
2009,09,29,02,44,9.30
2009,09,29,02,45,9.30
2009,09,29,02,46,9.30
2009,09,29,02,47,9.30
2009,09,29,02,48,9.30
2009,09,29,02,49,9.30
2009,09,29,02,50,9.20
2009,09,29,02,51,9.20
2009,09,29,02,52,9.20
2009,09,29,02,53,9.20
2009,09,29,02,54,9.20
2009,09,29,02,55,9.20
2009,09,29,02,56,9.20
2009,09,29,02,57,9.20
2009,09,29,02,58,9.20
2009,09,29,02,59,9.20
2009,09,29,03,00,9.20
2009,09,29,03,01,9.20
2009,09,29,03,02,9.20
2009,09,29,03,03,9.20
2009,09,29,03,04,9.20
2009,09,29,03,05,9.20
2009,09,29,03,06,9.20
2009,09,29,03,07,9.20
2009,09,29,03,08,9.30
2009,09,29,03,09,9.30
2009,09,29,03,10,9.30
2009,09,29,03,11,9.30
2009,09,29,03,12,9.30
2009,09,29,03,13,9.30
2009,09,29,03,14,9.30
2009,09,29,03,15,9.40
2009,09,29,03,16,9.40
2009,09,29,03,17,9.40
2009,09,29,03,18,9.40
2009,09,29,03,19,9.40
2009,09,29,03,20,9.30
2009,09,29,03,21,9.30
2009,09,29,03,22,9.30
2009,09,29,03,23,9.20
2009,09,29,03,24,9.20
2009,09,29,03,25,9.10
2009,09,29,03,26,9.10
2009,09,29,03,27,9.10
2009,09,29,03,28,9.10
2009,09,29,03,29,9.20
2009,09,29,03,30,9.20
2009,09,29,03,31,9.20
2009,09,29,03,32,9.20
2009,09,29,03,33,9.20
2009,09,29,03,34,9.20
2009,09,29,03,35,9.20
2009,09,29,03,36,9.20
2009,09,29,03,37,9.20
2009,09,29,03,38,9.20
2009,09,29,03,39,9.20
2009,09,29,03,40,9.20
2009,09,29,03,41,9.20
2009,09,29,03,42,9.20
2009,09,29,03,43,9.30
2009,09,29,03,44,9.30
2009,09,29,03,45,9.30
2009,09,29,03,46,9.30
2009,09,29,03,47,9.40
2009,09,29,03,48,9.50
2009,09,29,03,49,9.60
2009,09,29,03,50,9.60
2009,09,29,03,51,9.60
2009,09,29,03,52,9.70
2009,09,29,03,53,9.70
2009,09,29,03,54,9.70
2009,09,29,03,55,9.70
2009,09,29,03,56,9.80
2009,09,29,03,57,9.80
2009,09,29,03,58,9.80
2009,09,29,03,59,9.80
2009,09,29,04,00,9.80
2009,09,29,04,01,9.80
2009,09,29,04,02,9.80
2009,09,29,04,03,9.80
2009,09,29,04,04,9.80
2009,09,29,04,05,9.80
2009,09,29,04,06,9.80
2009,09,29,04,07,9.80
2009,09,29,04,08,9.80
2009,09,29,04,09,9.80
2009,09,29,04,10,9.80
2009,09,29,04,11,9.80
2009,09,29,04,12,9.80
2009,09,29,04,13,9.80
2009,09,29,04,14,9.80
2009,09,29,04,15,9.80
2009,09,29,04,16,9.80
2009,09,29,04,17,9.80
2009,09,29,04,18,9.90
2009,09,29,04,19,9.80
2009,09,29,04,20,9.90
2009,09,29,04,21,9.90
2009,09,29,04,22,9.90
2009,09,29,04,23,9.90
2009,09,29,04,24,9.90
2009,09,29,04,25,9.80
2009,09,29,04,26,9.90
2009,09,29,04,27,9.90
2009,09,29,04,28,9.90
2009,09,29,04,29,9.90
2009,09,29,04,30,9.90
2009,09,29,04,31,9.90
2009,09,29,04,32,9.90
2009,09,29,04,33,9.90
2009,09,29,04,34,9.90
2009,09,29,04,35,9.90
2009,09,29,04,36,9.90
2009,09,29,04,37,9.90
2009,09,29,04,38,9.90
2009,09,29,04,39,9.90
2009,09,29,04,40,9.90
2009,09,29,04,41,9.90
2009,09,29,04,42,9.90
2009,09,29,04,43,9.90
2009,09,29,04,44,9.90
2009,09,29,04,45,9.90
2009,09,29,04,46,9.90
2009,09,29,04,47,9.90
2009,09,29,04,48,9.90
2009,09,29,04,49,9.90
2009,09,29,04,50,9.80
2009,09,29,04,51,9.80
2009,09,29,04,52,9.80
2009,09,29,04,53,9.80
2009,09,29,04,54,9.80
2009,09,29,04,55,9.80
2009,09,29,04,56,9.80
2009,09,29,04,57,9.80
2009,09,29,04,58,9.80
2009,09,29,04,59,9.80
2009,09,29,05,00,9.80
2009,09,29,05,01,9.80
2009,09,29,05,02,9.80
2009,09,29,05,03,9.80
2009,09,29,05,04,9.80
2009,09,29,05,05,9.80
2009,09,29,05,06,9.80
2009,09,29,05,07,9.80
2009,09,29,05,08,9.80
2009,09,29,05,09,9.80
2009,09,29,05,10,9.80
2009,09,29,05,11,9.80
2009,09,29,05,12,9.80
2009,09,29,05,13,9.80
2009,09,29,05,14,9.80
2009,09,29,05,15,9.80
2009,09,29,05,16,9.80
2009,09,29,05,17,9.80
2009,09,29,05,18,9.80
2009,09,29,05,19,9.80
2009,09,29,05,20,9.80
2009,09,29,05,21,9.80
2009,09,29,05,22,9.80
2009,09,29,05,23,9.80
2009,09,29,05,24,9.80
2009,09,29,05,25,9.80
2009,09,29,05,26,9.80
2009,09,29,05,27,9.80
2009,09,29,05,28,9.80
2009,09,29,05,29,9.80
2009,09,29,05,30,9.80
2009,09,29,05,31,9.70
2009,09,29,05,32,9.70
2009,09,29,05,33,9.70
2009,09,29,05,34,9.70
2009,09,29,05,35,9.70
2009,09,29,05,36,9.70
2009,09,29,05,37,9.70
2009,09,29,05,38,9.70
2009,09,29,05,39,9.70
2009,09,29,05,40,9.70
2009,09,29,05,41,9.70
2009,09,29,05,42,9.70
2009,09,29,05,43,9.70
2009,09,29,05,44,9.70
2009,09,29,05,45,9.70
2009,09,29,05,46,9.70
2009,09,29,05,47,9.70
2009,09,29,05,48,9.70
2009,09,29,05,49,9.70
2009,09,29,05,50,9.70
2009,09,29,05,51,9.70
2009,09,29,05,52,9.70
2009,09,29,05,53,9.70
2009,09,29,05,54,9.70
2009,09,29,05,55,9.70
2009,09,29,05,56,9.70
2009,09,29,05,57,9.70
2009,09,29,05,58,9.70
2009,09,29,05,59,9.70
2009,09,29,06,00,9.70
2009,09,29,06,01,9.70
2009,09,29,06,02,9.70
2009,09,29,06,03,9.70
2009,09,29,06,04,9.70
2009,09,29,06,05,9.70
2009,09,29,06,06,9.70
2009,09,29,06,07,9.70
2009,09,29,06,08,9.70
2009,09,29,06,09,9.70
2009,09,29,06,10,9.70
2009,09,29,06,11,9.60
2009,09,29,06,12,9.60
2009,09,29,06,13,9.60
2009,09,29,06,14,9.60
2009,09,29,06,15,9.60
2009,09,29,06,16,9.50
2009,09,29,06,17,9.50
2009,09,29,06,18,9.50
2009,09,29,06,19,9.50
2009,09,29,06,20,9.50
2009,09,29,06,21,9.50
2009,09,29,06,22,9.50
2009,09,29,06,23,9.50
2009,09,29,06,24,9.50
2009,09,29,06,25,9.50
2009,09,29,06,26,9.40
2009,09,29,06,27,9.40
2009,09,29,06,28,9.50
2009,09,29,06,29,9.50
2009,09,29,06,30,9.50
2009,09,29,06,31,9.50
2009,09,29,06,32,9.50
2009,09,29,06,33,9.50
2009,09,29,06,34,9.40
2009,09,29,06,35,9.40
2009,09,29,06,36,9.40
2009,09,29,06,37,9.50
2009,09,29,06,38,9.50
2009,09,29,06,39,9.50
2009,09,29,06,40,9.50
2009,09,29,06,41,9.50
2009,09,29,06,42,9.50
2009,09,29,06,43,9.50
2009,09,29,06,44,9.50
2009,09,29,06,45,9.50
2009,09,29,06,46,9.50
2009,09,29,06,47,9.50
2009,09,29,06,48,9.50
2009,09,29,06,49,9.50
2009,09,29,06,50,9.50
2009,09,29,06,51,9.50
2009,09,29,06,52,9.50
2009,09,29,06,53,9.50
2009,09,29,06,54,9.50
2009,09,29,06,55,9.50
2009,09,29,06,56,9.50
2009,09,29,06,57,9.50
2009,09,29,06,58,9.50
2009,09,29,06,59,9.50
2009,09,29,07,00,9.50
2009,09,29,07,01,9.40
2009,09,29,07,02,9.40
2009,09,29,07,03,9.40
2009,09,29,07,04,9.40
2009,09,29,07,05,9.40
2009,09,29,07,06,9.40
2009,09,29,07,07,9.40
2009,09,29,07,08,9.40
2009,09,29,07,09,9.40
2009,09,29,07,10,9.40
2009,09,29,07,11,9.40
2009,09,29,07,12,9.40
2009,09,29,07,13,9.40
2009,09,29,07,14,9.40
2009,09,29,07,15,9.40
2009,09,29,07,16,9.40
2009,09,29,07,17,9.40
2009,09,29,07,18,9.40
2009,09,29,07,19,9.40
2009,09,29,07,20,9.40
2009,09,29,07,21,9.40
2009,09,29,07,22,9.40
2009,09,29,07,23,9.40
2009,09,29,07,24,9.40
2009,09,29,07,25,9.40
2009,09,29,07,26,9.40
2009,09,29,07,27,9.40
2009,09,29,07,28,9.40
2009,09,29,07,29,9.40
2009,09,29,07,30,9.40
2009,09,29,07,31,9.40
2009,09,29,07,32,9.40
2009,09,29,07,33,9.40
2009,09,29,07,34,9.40
2009,09,29,07,35,9.40
2009,09,29,07,36,9.40
2009,09,29,07,37,9.40
2009,09,29,07,38,9.40
2009,09,29,07,39,9.40
2009,09,29,07,40,9.40
2009,09,29,07,41,9.40
2009,09,29,07,42,9.40
2009,09,29,07,43,9.40
2009,09,29,07,44,9.40
2009,09,29,07,45,9.40
2009,09,29,07,46,9.30
2009,09,29,07,47,9.30
2009,09,29,07,48,9.30
2009,09,29,07,49,9.30
2009,09,29,07,50,9.30
2009,09,29,07,51,9.30
2009,09,29,07,52,9.30
2009,09,29,07,53,9.30
2009,09,29,07,54,9.30
2009,09,29,07,55,9.30
2009,09,29,07,56,9.30
2009,09,29,07,57,9.30
2009,09,29,07,58,9.30
2009,09,29,07,59,9.30
2009,09,29,08,00,9.30
2009,09,29,08,01,9.30
2009,09,29,08,02,9.30
2009,09,29,08,03,9.30
2009,09,29,08,04,9.30
2009,09,29,08,05,9.30
2009,09,29,08,06,9.30
2009,09,29,08,07,9.30
2009,09,29,08,08,9.30
2009,09,29,08,09,9.30
2009,09,29,08,10,9.30
2009,09,29,08,11,9.30
2009,09,29,08,12,9.40
2009,09,29,08,13,9.40
2009,09,29,08,14,9.30
2009,09,29,08,15,9.40
2009,09,29,08,16,9.30
2009,09,29,08,17,9.30
2009,09,29,08,18,9.30
2009,09,29,08,19,9.30
2009,09,29,08,20,9.30
2009,09,29,08,21,9.30
2009,09,29,08,22,9.30
2009,09,29,08,23,9.30
2009,09,29,08,24,9.30
2009,09,29,08,25,9.30
2009,09,29,08,26,9.30
2009,09,29,08,27,9.30
2009,09,29,08,28,9.30
2009,09,29,08,29,9.30
2009,09,29,08,30,9.40
2009,09,29,08,31,9.40
2009,09,29,08,32,9.40
2009,09,29,08,33,9.40
2009,09,29,08,34,9.40
2009,09,29,08,35,9.40
2009,09,29,08,36,9.40
2009,09,29,08,37,9.40
2009,09,29,08,38,9.40
2009,09,29,08,39,9.40
2009,09,29,08,40,9.40
2009,09,29,08,41,9.50
2009,09,29,08,42,9.50
2009,09,29,08,43,9.50
2009,09,29,08,44,9.60
2009,09,29,08,45,9.60
2009,09,29,08,46,9.60
2009,09,29,08,47,9.60
2009,09,29,08,48,9.60
2009,09,29,08,49,9.60
2009,09,29,08,50,9.60
2009,09,29,08,51,9.60
2009,09,29,08,52,9.60
2009,09,29,08,53,9.60
2009,09,29,08,54,9.60
2009,09,29,08,55,9.60
2009,09,29,08,56,9.60
2009,09,29,08,57,9.60
2009,09,29,08,58,9.70
2009,09,29,08,59,9.70
2009,09,29,09,00,9.70
2009,09,29,09,01,9.70
2009,09,29,09,02,9.70
2009,09,29,09,03,9.70
2009,09,29,09,04,9.70
2009,09,29,09,05,9.80
2009,09,29,09,06,9.80
2009,09,29,09,07,9.80
2009,09,29,09,08,9.80
2009,09,29,09,09,9.80
2009,09,29,09,10,9.90
2009,09,29,09,11,9.90
2009,09,29,09,12,9.90
2009,09,29,09,13,9.90
2009,09,29,09,14,10.00
2009,09,29,09,15,10.00
2009,09,29,09,16,10.00
2009,09,29,09,17,10.00
2009,09,29,09,18,10.00
2009,09,29,09,19,10.00
2009,09,29,09,20,10.10
2009,09,29,09,21,10.10
2009,09,29,09,22,10.10
2009,09,29,09,23,10.20
2009,09,29,09,24,10.20
2009,09,29,09,25,10.20
2009,09,29,09,26,10.30
2009,09,29,09,27,10.40
2009,09,29,09,28,10.40
2009,09,29,09,29,10.40
2009,09,29,09,30,10.40
2009,09,29,09,31,10.30
2009,09,29,09,32,10.40
2009,09,29,09,33,10.40
2009,09,29,09,34,10.40
2009,09,29,09,35,10.40
2009,09,29,09,36,10.50
2009,09,29,09,37,10.50
2009,09,29,09,38,10.60
2009,09,29,09,39,10.60
2009,09,29,09,40,10.60
2009,09,29,09,41,10.70
2009,09,29,09,42,10.70
2009,09,29,09,43,10.70
2009,09,29,09,44,10.60
2009,09,29,09,45,10.60
2009,09,29,09,46,10.60
2009,09,29,09,47,10.60
2009,09,29,09,48,10.60
2009,09,29,09,49,10.60
2009,09,29,09,50,10.60
2009,09,29,09,51,10.70
2009,09,29,09,52,10.70
2009,09,29,09,53,10.70
2009,09,29,09,54,10.80
2009,09,29,09,55,10.80
2009,09,29,09,56,10.90
2009,09,29,09,57,10.90
2009,09,29,09,58,10.90
2009,09,29,09,59,11.00
2009,09,29,10,00,11.10
2009,09,29,10,01,11.10
2009,09,29,10,02,11.20
2009,09,29,10,03,11.20
2009,09,29,10,04,11.20
2009,09,29,10,05,11.20
2009,09,29,10,06,11.20
2009,09,29,10,07,11.20
2009,09,29,10,08,11.20
2009,09,29,10,09,11.20
2009,09,29,10,10,11.20
2009,09,29,10,11,11.20
2009,09,29,10,12,11.20
2009,09,29,10,13,11.20
2009,09,29,10,14,11.30
2009,09,29,10,15,11.30
2009,09,29,10,16,11.30
2009,09,29,10,17,11.30
2009,09,29,10,18,11.40
2009,09,29,10,19,11.40
2009,09,29,10,20,11.40
2009,09,29,10,21,11.40
2009,09,29,10,22,11.40
2009,09,29,10,23,11.40
2009,09,29,10,24,11.40
2009,09,29,10,25,11.40
2009,09,29,10,26,11.40
2009,09,29,10,27,11.40
2009,09,29,10,28,11.40
2009,09,29,10,29,11.50
2009,09,29,10,30,11.50
2009,09,29,10,31,11.60
2009,09,29,10,32,11.60
2009,09,29,10,33,11.60
2009,09,29,10,34,11.60
2009,09,29,10,35,11.60
2009,09,29,10,36,11.70
2009,09,29,10,37,11.70
2009,09,29,10,38,11.70
2009,09,29,10,39,11.80
2009,09,29,10,40,11.80
2009,09,29,10,41,11.80
2009,09,29,10,42,11.80
2009,09,29,10,43,11.90
2009,09,29,10,44,11.90
2009,09,29,10,45,11.90
2009,09,29,10,46,11.90
2009,09,29,10,47,12.00
2009,09,29,10,48,12.00
2009,09,29,10,49,12.00
2009,09,29,10,50,12.00
2009,09,29,10,51,12.00
2009,09,29,10,52,12.00
2009,09,29,10,53,12.00
2009,09,29,10,54,12.00
2009,09,29,10,55,12.00
2009,09,29,10,56,12.00
2009,09,29,10,57,12.00
2009,09,29,10,58,12.00
2009,09,29,10,59,12.10
2009,09,29,11,00,12.10
2009,09,29,11,01,12.10
2009,09,29,11,02,12.10
2009,09,29,11,03,12.10
2009,09,29,11,04,12.00
2009,09,29,11,05,12.00
2009,09,29,11,06,12.00
2009,09,29,11,07,12.00
2009,09,29,11,08,11.90
2009,09,29,11,09,11.90
2009,09,29,11,10,11.90
2009,09,29,11,11,11.90
2009,09,29,11,12,11.90
2009,09,29,11,13,11.90
2009,09,29,11,14,12.00
2009,09,29,11,15,12.00
2009,09,29,11,16,12.10
2009,09,29,11,17,12.10
2009,09,29,11,18,12.20
2009,09,29,11,19,12.20
2009,09,29,11,20,12.20
2009,09,29,11,21,12.30
2009,09,29,11,22,12.30
2009,09,29,11,23,12.40
2009,09,29,11,24,12.40
2009,09,29,11,25,12.50
2009,09,29,11,26,12.50
2009,09,29,11,27,12.50
2009,09,29,11,28,12.50
2009,09,29,11,29,12.50
2009,09,29,11,30,12.40
2009,09,29,11,31,12.40
2009,09,29,11,32,12.30
2009,09,29,11,33,12.30
2009,09,29,11,34,12.30
2009,09,29,11,35,12.30
2009,09,29,11,36,12.30
2009,09,29,11,37,12.40
2009,09,29,11,38,12.30
2009,09,29,11,39,12.30
2009,09,29,11,40,12.30
2009,09,29,11,41,12.30
2009,09,29,11,42,12.30
2009,09,29,11,43,12.30
2009,09,29,11,44,12.30
2009,09,29,11,45,12.30
2009,09,29,11,46,12.30
2009,09,29,11,47,12.20
2009,09,29,11,48,12.00
2009,09,29,11,49,11.90
2009,09,29,11,50,11.90
2009,09,29,11,51,11.90
2009,09,29,11,52,11.80
2009,09,29,11,53,11.80
2009,09,29,11,54,11.70
2009,09,29,11,55,11.70
2009,09,29,11,56,11.70
2009,09,29,11,57,11.80
2009,09,29,11,58,11.80
2009,09,29,11,59,11.90
2009,09,29,12,00,11.90
2009,09,29,12,01,11.90
2009,09,29,12,02,12.00
2009,09,29,12,03,12.00
2009,09,29,12,04,12.00
2009,09,29,12,05,12.10
2009,09,29,12,06,12.10
2009,09,29,12,07,12.00
2009,09,29,12,08,12.00
2009,09,29,12,09,11.90
2009,09,29,12,10,11.90
2009,09,29,12,11,11.80
2009,09,29,12,12,11.80
2009,09,29,12,13,11.80
2009,09,29,12,14,11.70
2009,09,29,12,15,11.70
2009,09,29,12,16,11.60
2009,09,29,12,17,11.60
2009,09,29,12,18,11.50
2009,09,29,12,19,11.50
2009,09,29,12,20,11.40
2009,09,29,12,21,11.40
2009,09,29,12,22,11.40
2009,09,29,12,23,11.30
2009,09,29,12,24,11.40
2009,09,29,12,25,11.30
2009,09,29,12,26,11.30
2009,09,29,12,27,11.30
2009,09,29,12,28,11.40
2009,09,29,12,29,11.30
2009,09,29,12,30,11.30
2009,09,29,12,31,11.30
2009,09,29,12,32,11.30
2009,09,29,12,33,11.30
2009,09,29,12,34,11.40
2009,09,29,12,35,11.40
2009,09,29,12,36,11.40
2009,09,29,12,37,11.40
2009,09,29,12,38,11.40
2009,09,29,12,39,11.30
2009,09,29,12,40,11.20
2009,09,29,12,41,11.10
2009,09,29,12,42,10.90
2009,09,29,12,43,10.80
2009,09,29,12,44,10.60
2009,09,29,12,45,10.50
2009,09,29,12,46,10.30
2009,09,29,12,47,10.20
2009,09,29,12,48,10.20
2009,09,29,12,49,10.10
2009,09,29,12,50,10.10
2009,09,29,12,51,10.10
2009,09,29,12,52,10.10
2009,09,29,12,53,10.10
2009,09,29,12,54,10.10
2009,09,29,12,55,10.10
2009,09,29,12,56,10.10
2009,09,29,12,57,10.10
2009,09,29,12,58,10.10
2009,09,29,12,59,10.10
2009,09,29,13,00,10.10
2009,09,29,13,01,10.10
2009,09,29,13,02,10.10
2009,09,29,13,03,10.10
2009,09,29,13,04,10.10
2009,09,29,13,05,10.10
2009,09,29,13,06,10.10
2009,09,29,13,07,10.20
2009,09,29,13,08,10.20
2009,09,29,13,09,10.20
2009,09,29,13,10,10.20
2009,09,29,13,11,10.20
2009,09,29,13,12,10.20
2009,09,29,13,13,10.20
2009,09,29,13,14,10.20
2009,09,29,13,15,10.20
2009,09,29,13,16,10.30
2009,09,29,13,17,10.30
2009,09,29,13,18,10.30
2009,09,29,13,19,10.30
2009,09,29,13,20,10.30
2009,09,29,13,21,10.30
2009,09,29,13,22,10.30
2009,09,29,13,23,10.30
2009,09,29,13,24,10.30
2009,09,29,13,25,10.30
2009,09,29,13,26,10.30
2009,09,29,13,27,10.30
2009,09,29,13,28,10.30
2009,09,29,13,29,10.30
2009,09,29,13,30,10.30
2009,09,29,13,31,10.40
2009,09,29,13,32,10.40
2009,09,29,13,33,10.50
2009,09,29,13,34,10.40
2009,09,29,13,35,10.50
2009,09,29,13,36,10.50
2009,09,29,13,37,10.50
2009,09,29,13,38,10.50
2009,09,29,13,39,10.50
2009,09,29,13,40,10.50
2009,09,29,13,41,10.50
2009,09,29,13,42,10.50
2009,09,29,13,43,10.50
2009,09,29,13,44,10.50
2009,09,29,13,45,10.60
2009,09,29,13,46,10.60
2009,09,29,13,47,10.60
2009,09,29,13,48,10.50
2009,09,29,13,49,10.50
2009,09,29,13,50,10.50
2009,09,29,13,51,10.40
2009,09,29,13,52,10.40
2009,09,29,13,53,10.40
2009,09,29,13,54,10.40
2009,09,29,13,55,10.40
2009,09,29,13,56,10.40
2009,09,29,13,57,10.40
2009,09,29,13,58,10.50
2009,09,29,13,59,10.50
2009,09,29,14,00,10.50
2009,09,29,14,01,10.60
2009,09,29,14,02,10.60
2009,09,29,14,03,10.60
2009,09,29,14,04,10.70
2009,09,29,14,05,10.70
2009,09,29,14,06,10.70
2009,09,29,14,07,10.70
2009,09,29,14,08,10.70
2009,09,29,14,09,10.70
2009,09,29,14,10,10.70
2009,09,29,14,11,10.70
2009,09,29,14,12,10.70
2009,09,29,14,13,10.70
2009,09,29,14,14,10.70
2009,09,29,14,15,10.70
2009,09,29,14,16,10.70
2009,09,29,14,17,10.60
2009,09,29,14,18,10.60
2009,09,29,14,19,10.50
2009,09,29,14,20,10.30
2009,09,29,14,21,10.30
2009,09,29,14,22,10.20
2009,09,29,14,23,10.20
2009,09,29,14,24,10.10
2009,09,29,14,25,10.00
2009,09,29,14,26,10.00
2009,09,29,14,27,9.90
2009,09,29,14,28,9.80
2009,09,29,14,29,9.80
2009,09,29,14,30,9.80
2009,09,29,14,31,9.70
2009,09,29,14,32,9.70
2009,09,29,14,33,9.60
2009,09,29,14,34,9.60
2009,09,29,14,35,9.50
2009,09,29,14,36,9.50
2009,09,29,14,37,9.50
2009,09,29,14,38,9.40
2009,09,29,14,39,9.40
2009,09,29,14,40,9.40
2009,09,29,14,41,9.40
2009,09,29,14,42,9.40
2009,09,29,14,43,9.40
2009,09,29,14,44,9.40
2009,09,29,14,45,9.40
2009,09,29,14,46,9.40
2009,09,29,14,47,9.40
2009,09,29,14,48,9.40
2009,09,29,14,49,9.40
2009,09,29,14,50,9.40
2009,09,29,14,51,9.40
2009,09,29,14,52,9.50
2009,09,29,14,53,9.50
2009,09,29,14,54,9.50
2009,09,29,14,55,9.50
2009,09,29,14,56,9.50
2009,09,29,14,57,9.50
2009,09,29,14,58,9.50
2009,09,29,14,59,9.50
2009,09,29,15,00,9.50
2009,09,29,15,01,9.50
2009,09,29,15,02,9.50
2009,09,29,15,03,9.50
2009,09,29,15,04,9.50
2009,09,29,15,05,9.50
2009,09,29,15,06,9.50
2009,09,29,15,07,9.60
2009,09,29,15,08,9.60
2009,09,29,15,09,9.60
2009,09,29,15,10,9.60
2009,09,29,15,11,9.60
2009,09,29,15,12,9.60
2009,09,29,15,13,9.60
2009,09,29,15,14,9.60
2009,09,29,15,15,9.60
2009,09,29,15,16,9.60
2009,09,29,15,17,9.60
2009,09,29,15,18,9.60
2009,09,29,15,19,9.60
2009,09,29,15,20,9.50
2009,09,29,15,21,9.50
2009,09,29,15,22,9.50
2009,09,29,15,23,9.50
2009,09,29,15,24,9.50
2009,09,29,15,25,9.50
2009,09,29,15,26,9.50
2009,09,29,15,27,9.50
2009,09,29,15,28,9.50
2009,09,29,15,29,9.50
2009,09,29,15,30,9.50
2009,09,29,15,31,9.50
2009,09,29,15,32,9.50
2009,09,29,15,33,9.60
2009,09,29,15,34,9.60
2009,09,29,15,35,9.60
2009,09,29,15,36,9.60
2009,09,29,15,37,9.60
2009,09,29,15,38,9.60
2009,09,29,15,39,9.60
2009,09,29,15,40,9.60
2009,09,29,15,41,9.60
2009,09,29,15,42,9.60
2009,09,29,15,43,9.60
2009,09,29,15,44,9.60
2009,09,29,15,45,9.60
2009,09,29,15,46,9.60
2009,09,29,15,47,9.60
2009,09,29,15,48,9.60
2009,09,29,15,49,9.60
2009,09,29,15,50,9.60
2009,09,29,15,51,9.60
2009,09,29,15,52,9.50
2009,09,29,15,53,9.50
2009,09,29,15,54,9.50
2009,09,29,15,55,9.50
2009,09,29,15,56,9.40
2009,09,29,15,57,9.50
2009,09,29,15,58,9.50
2009,09,29,15,59,9.50
2009,09,29,16,00,9.50
2009,09,29,16,01,9.60
2009,09,29,16,02,9.60
2009,09,29,16,03,9.60
2009,09,29,16,04,9.60
2009,09,29,16,05,9.60
2009,09,29,16,06,9.60
2009,09,29,16,07,9.60
2009,09,29,16,08,9.60
2009,09,29,16,09,9.70
2009,09,29,16,10,9.70
2009,09,29,16,11,9.60
2009,09,29,16,12,9.60
2009,09,29,16,13,9.60
2009,09,29,16,14,9.60
2009,09,29,16,15,9.70
2009,09,29,16,16,9.70
2009,09,29,16,17,9.80
2009,09,29,16,18,9.80
2009,09,29,16,19,9.80
2009,09,29,16,20,9.80
2009,09,29,16,21,9.80
2009,09,29,16,22,9.80
2009,09,29,16,23,9.80
2009,09,29,16,24,9.90
2009,09,29,16,25,9.90
2009,09,29,16,26,9.90
2009,09,29,16,27,9.90
2009,09,29,16,28,9.90
2009,09,29,16,29,9.90
2009,09,29,16,30,9.90
2009,09,29,16,31,10.00
2009,09,29,16,32,10.00
2009,09,29,16,33,10.00
2009,09,29,16,34,10.00
2009,09,29,16,35,9.90
2009,09,29,16,36,10.00
2009,09,29,16,37,10.10
2009,09,29,16,38,10.10
2009,09,29,16,39,10.10
2009,09,29,16,40,10.20
2009,09,29,16,41,10.20
2009,09,29,16,42,10.30
2009,09,29,16,43,10.30
2009,09,29,16,44,10.40
2009,09,29,16,45,10.40
2009,09,29,16,46,10.50
2009,09,29,16,47,10.50
2009,09,29,16,48,10.60
2009,09,29,16,49,10.70
2009,09,29,16,50,10.80
2009,09,29,16,51,10.90
2009,09,29,16,52,10.90
2009,09,29,16,53,11.00
2009,09,29,16,54,11.00
2009,09,29,16,55,11.00
2009,09,29,16,56,11.10
2009,09,29,16,57,11.10
2009,09,29,16,58,11.10
2009,09,29,16,59,11.10
2009,09,29,17,00,11.20
2009,09,29,17,01,11.20
2009,09,29,17,02,11.30
2009,09,29,17,03,11.40
2009,09,29,17,04,11.40
2009,09,29,17,05,11.50
2009,09,29,17,06,11.50
2009,09,29,17,07,11.60
2009,09,29,17,08,11.60
2009,09,29,17,09,11.70
2009,09,29,17,10,11.80
2009,09,29,17,11,11.80
2009,09,29,17,12,11.80
2009,09,29,17,13,11.80
2009,09,29,17,14,11.80
2009,09,29,17,15,11.80
2009,09,29,17,16,11.80
2009,09,29,17,17,11.80
2009,09,29,17,18,11.80
2009,09,29,17,19,11.80
2009,09,29,17,20,11.80
2009,09,29,17,21,11.80
2009,09,29,17,22,11.80
2009,09,29,17,23,11.80
2009,09,29,17,24,11.80
2009,09,29,17,25,11.80
2009,09,29,17,26,11.80
2009,09,29,17,27,11.80
2009,09,29,17,28,11.90
2009,09,29,17,29,11.90
2009,09,29,17,30,11.90
2009,09,29,17,31,11.90
2009,09,29,17,32,11.90
2009,09,29,17,33,11.90
2009,09,29,17,34,11.90
2009,09,29,17,35,11.90
2009,09,29,17,36,12.00
2009,09,29,17,37,12.00
2009,09,29,17,38,12.00
2009,09,29,17,39,11.90
2009,09,29,17,40,11.90
2009,09,29,17,41,11.90
2009,09,29,17,42,11.90
2009,09,29,17,43,11.90
2009,09,29,17,44,11.90
2009,09,29,17,45,11.80
2009,09,29,17,46,11.80
2009,09,29,17,47,11.80
2009,09,29,17,48,11.70